Flag for Brazil Weather past 2 weeks in Belém, Para, Brazil

Now
77 °F

Passing clouds.


Feels Like: 78 °F
Forecast: 74 / 87 °F
Wind: 6 mph from East

Location: Belem Aeroporto


UV Index: 3 (Moderate)

Visibility: N/A


Pressure: 29.89 "Hg

Humidity: 94%

Dew point: 75 °F

Location of BelémLocation

Historic Weather in Belém

°F

Belém temperature yesterday

Maximum temperature yesterday: 84 °F (at 10:00 AM)
Minimum temperature yesterday: 41 °F (at 2:00 PM)
Average temperature yesterday: 76 °F

Past Weeks' High & Low Weather Summary

 TemperatureHumidityPressure
High88 °F (Apr 7, 12:00 PM)100% (Apr 6, 2:00 PM)29.98 "Hg (Apr 6, 2:00 PM)
Low41 °F (Apr 19, 8:00 PM)20% (Apr 13, 3:00 PM)29.71 "Hg (Apr 14, 5:00 PM)
Average78 °F88%29.87 "Hg
* Reported Apr 5 11:00 PM — Apr 20 11:00 PM, Belém, Weather by CustomWeather, © 2014

Note: Actual official high and low records may vary slightly from our data, if they occured in-between our weather recording intervals... More about our weather records

Advertising

Historic Weather Conditions — Data for Previous 24 hours

 ConditionsComfort  
Time TempWeatherWind HumidityBarometerVisibility
11:00 PM
Apr 20
77 °FPassing clouds.5 mph94%29.92 "HgN/A
10:00 PM77 °FPassing clouds.5 mph94%29.89 "HgN/A
9:00 PM79 °FPassing clouds.5 mph94%29.86 "HgN/A
8:00 PM79 °FPassing clouds.5 mph94%29.86 "HgN/A
7:00 PM79 °FPassing clouds.2 mph94%29.83 "HgN/A
6:00 PM79 °FPartly sunny.5 mph94%29.80 "HgN/A
5:00 PM81 °FBroken clouds.5 mph84%29.80 "HgN/A
4:00 PM79 °FBroken clouds.6 mph94%29.83 "HgN/A
3:00 PM79 °FThunderstorms. Broken clouds.7 mph21%29.86 "HgN/A
2:07 PM75 °FRain. Partly sunny.9 mph94%N/A1 mi
2:00 PM41 °FLight rain. Broken clouds.6 mph100%29.86 "Hg2 mi
1:00 PM82 °FLight rain. Broken clouds.12 mph74%29.89 "HgN/A
12:00 PM84 °FPartly sunny.6 mph74%29.92 "HgN/A
11:00 AM84 °FPartly sunny.9 mph74%29.92 "HgN/A
10:00 AM84 °FPartly sunny.9 mph74%29.95 "HgN/A
9:00 AM82 °FScattered clouds.7 mph79%29.95 "HgN/A
8:00 AM77 °FPartly sunny.5 mph94%29.92 "HgN/A
7:00 AM73 °FPartly sunny.3 mph100%29.89 "HgN/A
6:00 AM73 °FPassing clouds.3 mph94%29.89 "HgN/A
5:00 AM73 °FClear.3 mph100%29.86 "Hg10 mi
4:00 AM73 °FClear.3 mph100%29.86 "Hg10 mi
3:00 AM73 °FClear.3 mph100%29.86 "Hg10 mi
2:00 AM75 °FClear.3 mph94%29.86 "Hg10 mi
1:00 AM75 °FClear.2 mph94%29.89 "Hg10 mi
12:00 AM75 °FPassing clouds.3 mph94%29.92 "HgN/A
Weather by CustomWeather, © 2014

See weather overview